This demonstration page uses our WeatherBlox Daily Observations layout. Learn more.

Left ArrowRight Arrow

Hourly Observations for December 23, 2017

Temp ( °F °C ) Dew Point ( °F °C ) Humidity (%) Winds ( mph kmh ) Pressure ( in mb ) Visibility ( mi km ) Precip ( " mm )
12:53 am 00:53 Cloudy 58 14.4 57 13.9 97 97 S 5 7 30.07 1018 10 16 0.00 0.00
1:53 am 01:53 Cloudy 58 14.4 57 13.9 97 97 Calm 30.06 1018 10 16 0.00 0.03
2:53 am 02:53 Cloudy 59 15 58 14.4 96 96 S 6 9 30.05 1018 10 16 0.00 0.03
3:53 am 03:53 Cloudy with Light Rain 61 16.1 59 15 93 93 SSW 9 15 30.04 1017 10 16 0.00 0.03
4:53 am 04:53 Cloudy 61 16.1 60 15.6 97 97 S 8 13 30.02 1017 10 16 0.00 0.03
5:53 am 05:53 Cloudy 62 16.7 61 16.1 96 96 S 9 15 30.01 1016 10 16 0.00 0.03
6:50 am 06:50 Cloudy 64 18 61 16 88 88 SSW 12 19 30.03 1017 10 16 0.00 0.00
6:53 am 06:53 Cloudy 64 17.8 62 16.7 93 93 SSW 14 22 30.01 1016 10 16 0.00 0.00
7:53 am 07:53 Cloudy 64 17.8 61 16.1 90 90 S 13 20 29.99 1016 10 16 0.00 0.00
8:53 am 08:53 Cloudy 65 18.3 62 16.7 90 90 SSW 10 17 29.99 1016 10 16 0.00 0.00
9:53 am 09:53 Cloudy 66 18.9 62 16.7 87 87 SSW 12 19 29.99 1016 10 16 0.00 0.03
10:53 am 10:53 Cloudy 68 20 62 16.7 81 81 SSW 17 28 29.97 1015 10 16 0.00 0.00
11:53 am 11:53 Cloudy 69 20.6 62 16.7 78 78 SSW 9 15 29.94 1014 10 16 0.00 0.03
12:53 pm 12:53 Cloudy 69 20.6 63 17.2 81 81 SSW 15 24 29.91 1013 10 16 0.00 0.00
1:00 pm 13:00 Cloudy 69 20.6 63 17.2 81 81 SSW 13 20 29.88 1012 10 16 0.00 0.00
1:51 pm 13:51 Cloudy with Light Rain 66 19 66 19 100 100 SW 7 11 29.94 1014 2 3 0.06 1.52
1:52 pm 13:52 Cloudy with Light Rain 66 18.9 66 18.9 100 100 SW 8 13 29.92 1013 2 3 0.06 1.52
1:54 pm 13:54 Cloudy with Light Rain 66 18.9 66 18.9 100 100 SW 9 15 29.94 1014 2 3 0.00 0.03
2:06 pm 14:06 Cloudy with Light Rain 66 18.9 66 18.9 100 100 WSW 7 11 29.94 1014 3 5 0.02 0.51
2:53 pm 14:53 Cloudy with Nearby Thunderstorms 65 18.3 61 16.1 87 87 W 10 17 29.95 1014 10 16 0.02 0.51
3:13 pm 15:13 Cloudy with Light Rain 63 17.2 59 15 87 87 W 9 15 29.97 1015 10 16 0.00 0.03
3:53 pm 15:53 Cloudy 63 17.2 59 15 87 87 W 8 13 29.97 1015 10 16 0.00 0.03
4:16 pm 16:16 Cloudy 63 17.2 59 15 87 87 WNW 8 13 29.97 1015 10 16 0.00 0.00
4:34 pm 16:34 Cloudy 63 17.2 57 13.9 81 81 W 8 13 30.00 1016 10 16 0.00 0.00
4:53 pm 16:53 Cloudy 63 17.2 55 12.8 76 76 W 9 15 29.98 1015 10 16 0.00 0.00
5:53 pm 17:53 Cloudy 58 14.4 54 12.2 87 87 NW 16 26 30.01 1016 10 16 0.00 0.00
6:06 pm 18:06 Cloudy 56 13.3 52 11.1 87 87 NW 15 24 30.03 1017 10 16 0.00 0.00
6:23 pm 18:23 Cloudy 55 12.8 50 10 83 83 WNW 7 11 30.03 1017 10 16 0.00 0.00
6:42 pm 18:42 Cloudy 54 12.2 50 10 87 87 WNW 6 9 30.03 1017 10 16 0.00 0.00
6:53 pm 18:53 Mostly Cloudy 54 12.2 50 10 87 87 WNW 10 17 30.02 1017 10 16 0.00 0.00
7:53 pm 19:53 Cloudy 52 11.1 49 9.4 89 89 WNW 9 15 30.03 1017 10 16 0.00 0.00
8:53 pm 20:53 Cloudy 52 11.1 48 8.9 86 86 NW 8 13 30.04 1017 10 16 0.00 0.00
9:53 pm 21:53 Cloudy 51 10.6 47 8.3 86 86 NW 14 22 30.05 1018 10 16 0.00 0.00
10:53 pm 22:53 Cloudy 50 10 45 7.2 83 83 NW 9 15 30.07 1018 10 16 0.00 0.00
11:53 pm 23:53 Cloudy 49 9.4 45 7.2 86 86 NW 6 9 30.06 1018 10 16 0.00 0.00

Powered by AerisWeather